Regional Weather Roundup
Issued by NWS Newport/Morehead, NC

Current Version | Previous Version | Graphics & Text | Print | Product List | Glossary Off
Versions: 1 2 3 4 5 6 7 8 9 10 11 12 13 14 15 16 17 18 19 20 21 22 23 24 25 26 27 28 29 30 31 32 33 34 35 36 37 38 39 40 41 42 43 44 45 46 47 48 49 50

000
ASUS42 KMHX 281313
RWRMHX
WEATHER ROUNDUP FOR EASTERN NORTH CAROLINA
NATIONAL WEATHER SERVICE NEWPORT/MOREHEAD CITY NC
900 AM EDT SUN AUG 28 2016

NOTE: "FAIR" INDICATES FEW OR NO CLOUDS BELOW 12,000 FEET
WITH NO SIGNIFICANT WEATHER AND/OR OBSTRUCTIONS TO VISIBILITY

NCZ015>017-031-032-045>047-102-103-281400-
NORTH COAST

CITY           SKY/WX    TMP DP  RH WIND       PRES   REMARKS
EDENTON        CLOUDY   N/A N/A N/A N8        30.17R
ELIZABETH CITY PTSUNNY   81  76  84 N10       30.16R
KITTY HAWK     MOSUNNY   84  80  86 NE7       30.12S
MANTEO         PTSUNNY   82  77  87 NE8       30.13S

$$

NCZ045>047-081-094-103-104-281400-
CENTRAL COAST

CITY           SKY/WX    TMP DP  RH WIND       PRES   REMARKS
FRISCO         PTSUNNY   85  75  72 E6        30.11S

$$

NCZ095-097-098-100-101-281400-
SOUTHERN COAST

CITY           SKY/WX    TMP DP  RH WIND       PRES   REMARKS
BEAUFORT       CLOUDY    81  78  91 N7        30.12R
CEDAR ISLAND   NOT AVBL
JACKSONVILLE   CLOUDY    79  74  84 N9        30.13R
PINEY ISLAND   NOT AVBL
WILMINGTON     PTSUNNY   78  74  87 N13       30.13R


$$

NCZ011>013-027>030-043-044-078>080-089-090>093-098-281400-
COASTAL PLAIN

CITY           SKY/WX    TMP DP  RH WIND       PRES   REMARKS
AHOSKIE        MOSUNNY   74  72  92 N8        30.19S
CLINTON        PTSUNNY   76  74  93 NE5       30.16R
ELIZABETHTOWN  MOSUNNY   78  75  90 CALM      30.14S
GOLDSBORO      CLOUDY    75  75 100 N6        30.16R
GREENVILLE     CLOUDY    77  75  94 N8        30.19R
HAVELOCK       MOSUNNY   80  75  84 N14       30.14R
KENANSVILLE    CLOUDY    75  73  94 N8        30.16S FOG
KINSTON        CLOUDY    75  75 100 N7        30.17R FOG
NEW BERN       CLOUDY    77  75  93 N7        30.16R
RICHLANDS      CLOUDY    76  75  97 N9        30.14S
ROCKY MOUNT    CLOUDY    74  74 100 N6        30.19S FOG
WASHINGTON     CLOUDY    75  75  98 N7        30.16S FOG
WHITEVILLE     CLOUDY    77  74  91 N3        30.13S

$$

AMZ130-135-150-152-154-156-158-170-250-252-270-ANZ085-086-088-633-658-670-281400-
MARINE OBSERVATIONS

STATION/POSITION TIME  TEMP    WIND        PRES    WAVE   SWELL
                       AIR SEA DIR/SP/G            HT/PER HT/PER
                 (UTC) (F)     (DEG/KT/KT) (MB)    (FT/S) (FT/S)
CHESAPEAKE LIGHT NOT AVBL
64 E VA BEACH    1250   81 81   70/ 14/ 17 1020.4    4/ 6   2/ 8
DUCK             1200      78   40/ 11/ 12 1020.0
2 E DUCK         1211      79                N/A     4/ 6
OREGON INLET     1200      78   20/  7/ 10 1019.7
13E OREGON INLT  1300      79                N/A     3/ 8   3/ 8
HATTERAS CG      1200      83   50/  4/  5 1019.3
DIAMOND BUOY     1250   83 85  100/  8/ 10 1019.5    3/ 8   3/ 8
CAPE LOOKOUT     1300   81      10/  6/  7 1019.6
BEAUFORT LAB     1200      82   10/  7/  9 1018.9
30 SE NEW RVR IN 1208   83 84   50/ 10/ 12 1019.4
30 SE NEW RVR IN 1225      84                N/A     3/ 8
27 SE WRIGHTSVLE 1208   83 84   40/ 12/ 16 1019.5
5 SE WRIGHTSVLE  1208   80 83   30/ 12/ 17 1020.5
225 S CAPE HAT   1250   82 84   70/ 10/ 12 1017.8    3/ 8   3/ 8
41 SE CHARLESTON 1250   84 84   60/ 12/ 14 1018.5    4/ 8   3/ 8

$$




USA.gov is the U.S. government's official web portal to all federal, state and local government web resources and services.